Weather in Kimchaek

North Korea     40°42′08″N   129°12′44″E
temp.,
°C
wind,
m/s
gust,
m/s
humid.,
%
clouds,
%
prec.,
mm/h
press.,
hPa
HPBL,
m
12 may, wed
wed1200:00+9wnw1160100 0.0 101811
03:00+8wnw1162100 0.0 101811
06:00+8nw116141 0.0 101814
09:00+16s474424 0.0 1017771
12:00+18ssw8124091 0.0 10151403
15:00+17ssw81143100 0.0 10131207
18:00+14s496798 0.0 1013494
21:00+12ssw2381100 0.0 1014100
13 may, thu
thu1300:00+10nw119094 0.0 101410
03:00+11nne1286100 0.0 101336
06:00+11n118636 0.0 101413
09:00+16e116279 0.0 1014562
12:00+19se425775 0.0 1013702
15:00+18se2258100 0.0 1012603
18:00+15sse1176100 0.0 101351
21:00+14nnw1182100 0.3 101424
14 may, fri
fri1400:00+14nw1179100 0.1 101314
03:00+14wsw0173100 0.1 101311
06:00+13nne118538 0.0 101331
09:00+15sse107577 0.0 1014183
12:00+20sse435699 0.0 1013757
15:00+19sse346027 0.0 1011583
18:00+17sse346896 0.0 1011302
21:00+12wsw118765 0.0 101211
15 may, sat
sat1500:00+12nw119188 0.0 101110
03:00+11nw00935 0.0 101010
06:00+12nnw22902 0.0 101033
09:00+20sse21658 0.0 1008350
12:00+22se325860 0.0 1007489
15:00+21se326131 0.0 1005439
18:00+18se2174100 0.0 1005211
21:00+16nnw1182100 0.0 100642
16 may, sun
sun1600:00+17ne1275100 0.1 100748
03:00+14ne129097 0.9 100699
06:00+13nne1289100 0.1 1007111
09:00+13nne2386100 0.4 1008268
12:00+13nw2481100 0.8 1009242
15:00+14nw1272100 1.0 1008248
18:00+13wsw1180100 0.0 100833
21:00+12wnw1188100 0.0 100812